STARLINK-36260

Last updated on Sat Mar 14 2026 00:02:06 GMT+0000 (Coordinated Universal Time)

1 67732U 26026M 26072.58334491 .00095986 00000+0 29432-2 0 9993 2 67732 97.2851 127.1437 0001579 99.3026 254.7445 15.33387348 5949
UTC large
Height (km)
Speed (km/s)
/
Latitude / Longitude
Inclination (degrees)
Orbital Period (minutes)
Azimuth
Elevation
Range (km)
Doppler Factor

Next 0 passes for location: London (51.5072 / 0.1276)

Sorry there are no passes over London.